Location: Castellar de la Frontera
(36.3200°N, 5.4500°W)
Time: 16:13:09
(UTC+01:00)

ISS - Visible Passes

Search period start: 20 November 2017 00:00
Search period end: 30 November 2017 00:00
Orbit: 402 x 407 km, 51.6° (Epoch: 21 November)

Date Brightness Start Highest point End Pass type
(mag) Time Alt. Az. Time Alt. Az. Time Alt. Az.
20 Nov -1.7 06:57:27 13° SW 06:57:29 13° SW 06:59:07 10° SSW visible
21 Nov -1.0 06:07:52 12° S 06:07:52 12° S 06:08:10 10° SSE visible
24 Nov -1.6 20:03:19 10° SSW 20:04:31 19° SSW 20:04:31 19° SSW visible
25 Nov -2.1 19:11:50 10° S 19:14:10 18° SE 19:14:45 17° ESE visible
25 Nov -0.2 20:47:22 10° WSW 20:47:26 10° WSW 20:47:26 10° WSW visible
26 Nov -3.4 19:54:45 10° SW 19:57:35 61° W 19:57:35 61° W visible
27 Nov -3.5 19:02:31 10° SSW 19:05:41 49° SE 19:07:38 20° ENE visible
27 Nov -0.4 20:39:58 10° WNW 20:40:18 12° WNW 20:40:18 12° WNW visible
28 Nov -2.4 19:46:50 10° W 19:49:46 30° NW 19:50:15 28° NNW visible
29 Nov -3.4 18:54:04 10° WSW 18:57:17 57° NW 19:00:07 13° NE visible
